{"data":{"norad_id":48044,"epoch":"2026-09-20T02:01:44.254272Z","epoch_age_seconds":57732,"freshness":"FRESH","line1":"1 48044U 21025C   26263.08453998  .00000201  00000+0  51524-3 0  9997","line2":"2 48044  87.8922 301.3426 0001799  97.0658 263.0676 13.13470216266000","mean_motion":13.13470216,"eccentricity":0.0001799,"inclination_deg":87.8922,"raan_deg":301.3426,"arg_perigee_deg":97.0658,"mean_anomaly_deg":263.0676,"bstar":0.00051524,"rev_number":26600,"period_min":109.63324348422,"perigee_km":1208.3995045218,"apogee_km":1211.129631506,"semimajor_km":7587.9015680139,"source":"CELESTRAK","updated_at":"2026-09-20T09:00:44.583988Z"}}